SPEUR EPKS-EPPW

Flight info

Callsign SPEUR
Flight time 0h 20m
Altitude 2000
Route EPKS DCT EPKSK DCT EPPWW DCT EPPWO DCT EPPW
Aircraft BE36/L-SRL/L

Departure

Time 2026-04-23 16:53
Airport Krzesiny Military Air Base (EPKS)

Arrival

Time 2026-04-23 17:13
Airport Powidz Military Air Base (EPPW)
Time Latitude Longitude Altitude Speed Heading
2026-04-23 16:35 52.33105 16.94920 264 ft 0 kts 256°
2026-04-23 16:45 52.33101 16.94905 264 ft 4 kts 228°
2026-04-23 16:45 52.33074 16.94959 264 ft 8 kts 90°
2026-04-23 16:46 52.33018 16.95009 264 ft 14 kts 167°
2026-04-23 16:46 52.32895 16.95062 264 ft 22 kts 165°
2026-04-23 16:46 52.32755 16.95125 264 ft 19 kts 163°
2026-04-23 16:46 52.32669 16.95193 264 ft 11 kts 99°
2026-04-23 16:47 52.32665 16.95357 264 ft 18 kts 92°
2026-04-23 16:47 52.32658 16.95603 264 ft 25 kts 93°
2026-04-23 16:47 52.32650 16.95890 264 ft 26 kts 94°
2026-04-23 16:47 52.32641 16.96164 264 ft 22 kts 93°
2026-04-23 16:48 52.32658 16.96370 264 ft 19 kts 67°
2026-04-23 16:48 52.32711 16.96588 264 ft 22 kts 67°
2026-04-23 16:48 52.32755 16.96796 264 ft 13 kts 83°
2026-04-23 16:48 52.32762 16.96972 264 ft 13 kts 105°
2026-04-23 16:49 52.32723 16.97068 264 ft 18 kts 123°
2026-04-23 16:49 52.32667 16.97239 264 ft 19 kts 120°
2026-04-23 16:49 52.32577 16.97517 264 ft 15 kts 107°
2026-04-23 16:49 52.32620 16.97596 264 ft 12 kts 20°
2026-04-23 16:50 52.32708 16.97669 265 ft 17 kts 30°
2026-04-23 16:50 52.32801 16.97749 265 ft 14 kts 17°
2026-04-23 16:50 52.32851 16.97718 265 ft 9 kts 299°
2026-04-23 16:50 52.32855 16.97705 264 ft 0 kts 296°
2026-04-23 16:52 52.32927 16.97487 264 ft 50 kts 297°
2026-04-23 16:52 52.33135 16.96800 352 ft 76 kts 297°
2026-04-23 16:52 52.33319 16.95981 544 ft 81 kts 294°
2026-04-23 16:53 52.33552 16.95038 740 ft 97 kts 296°
2026-04-23 16:53 52.33817 16.93975 969 ft 100 kts 296°
2026-04-23 16:53 52.33720 16.92871 1234 ft 114 kts 237°
2026-04-23 16:53 52.32923 16.92610 1473 ft 129 kts 161°
2026-04-23 16:54 52.32364 16.93633 1718 ft 118 kts 114°
2026-04-23 16:54 52.31945 16.94768 1963 ft 116 kts 116°
2026-04-23 16:54 52.31512 16.95987 2002 ft 133 kts 117°
2026-04-23 16:54 52.31023 16.97383 2005 ft 148 kts 116°
2026-04-23 16:55 52.30498 16.98892 2001 ft 157 kts 115°
2026-04-23 16:55 52.29928 17.00463 1998 ft 164 kts 116°
2026-04-23 16:55 52.29433 17.02131 1993 ft 158 kts 94°
2026-04-23 16:55 52.29664 17.03664 1987 ft 134 kts 42°
2026-04-23 16:56 52.30282 17.04719 1986 ft 130 kts 48°
2026-04-23 16:56 52.30663 17.06084 1992 ft 132 kts 61°
2026-04-23 16:56 52.30996 17.07468 1982 ft 130 kts 61°
2026-04-23 16:56 52.31313 17.08858 1984 ft 131 kts 62°
2026-04-23 16:57 52.31625 17.10258 1985 ft 131 kts 62°
2026-04-23 16:57 52.31935 17.11658 1984 ft 131 kts 62°
2026-04-23 16:57 52.32242 17.13050 1986 ft 130 kts 62°
2026-04-23 16:57 52.32549 17.14435 1978 ft 128 kts 62°
2026-04-23 16:58 52.32850 17.15801 1979 ft 127 kts 62°
2026-04-23 16:58 52.33131 17.17170 1979 ft 129 kts 71°
2026-04-23 16:58 52.33171 17.18656 1983 ft 134 kts 82°
2026-04-23 16:58 52.33211 17.20181 1984 ft 135 kts 81°
2026-04-23 16:59 52.33246 17.21720 1982 ft 136 kts 81°
2026-04-23 16:59 52.33283 17.23268 1982 ft 136 kts 80°
2026-04-23 16:59 52.33319 17.24809 1982 ft 136 kts 82°
2026-04-23 16:59 52.33356 17.26346 1981 ft 135 kts 81°
2026-04-23 17:00 52.33392 17.27881 1978 ft 135 kts 82°
2026-04-23 17:00 52.33424 17.29412 1973 ft 135 kts 80°
2026-04-23 17:00 52.33460 17.30937 1974 ft 133 kts 80°
2026-04-23 17:00 52.33496 17.32447 1976 ft 132 kts 79°
2026-04-23 17:01 52.33531 17.33957 1976 ft 133 kts 80°
2026-04-23 17:01 52.33563 17.35464 1973 ft 132 kts 82°
2026-04-23 17:01 52.33596 17.36960 1969 ft 131 kts 80°
2026-04-23 17:01 52.33629 17.38448 1967 ft 130 kts 80°
2026-04-23 17:02 52.33660 17.39898 1975 ft 131 kts 80°
2026-04-23 17:02 52.33695 17.41403 1975 ft 133 kts 80°
2026-04-23 17:02 52.33728 17.42911 1978 ft 133 kts 81°
2026-04-23 17:02 52.33763 17.44439 1977 ft 134 kts 81°
2026-04-23 17:03 52.33794 17.45960 1981 ft 133 kts 81°
2026-04-23 17:03 52.33828 17.47475 1979 ft 133 kts 80°
2026-04-23 17:03 52.33857 17.48987 1979 ft 132 kts 81°
2026-04-23 17:03 52.33891 17.50464 1976 ft 132 kts 80°
2026-04-23 17:04 52.33923 17.51965 1967 ft 131 kts 81°
2026-04-23 17:04 52.33951 17.53454 1967 ft 131 kts 81°
2026-04-23 17:04 52.33986 17.54959 1962 ft 133 kts 82°
2026-04-23 17:04 52.34019 17.56454 1964 ft 131 kts 81°
2026-04-23 17:05 52.34062 17.57962 1972 ft 134 kts 80°
2026-04-23 17:05 52.34105 17.59489 1978 ft 134 kts 80°
2026-04-23 17:05 52.34148 17.61026 1947 ft 137 kts 80°
2026-04-23 17:05 52.34193 17.62595 1872 ft 138 kts 81°
2026-04-23 17:06 52.34235 17.64164 1798 ft 138 kts 82°
2026-04-23 17:06 52.34277 17.65742 1721 ft 139 kts 81°
2026-04-23 17:06 52.34317 17.67300 1654 ft 139 kts 80°
2026-04-23 17:06 52.34362 17.68890 1582 ft 142 kts 81°
2026-04-23 17:07 52.34407 17.70516 1501 ft 145 kts 81°
2026-04-23 17:07 52.34449 17.72167 1430 ft 145 kts 80°
2026-04-23 17:07 52.34495 17.73818 1370 ft 143 kts 81°
2026-04-23 17:07 52.34535 17.75416 1367 ft 138 kts 80°
2026-04-23 17:08 52.34576 17.76965 1366 ft 135 kts 79°
2026-04-23 17:08 52.34618 17.78507 1358 ft 136 kts 80°
2026-04-23 17:08 52.34658 17.80039 1359 ft 134 kts 81°
2026-04-23 17:08 52.34695 17.81568 1358 ft 135 kts 79°
2026-04-23 17:09 52.34738 17.83108 1359 ft 135 kts 80°
2026-04-23 17:09 52.34577 17.84592 1358 ft 138 kts 114°
2026-04-23 17:09 52.34223 17.86012 1361 ft 132 kts 101°
2026-04-23 17:09 52.33949 17.87417 1367 ft 127 kts 104°
2026-04-23 17:10 52.33653 17.88799 1374 ft 131 kts 104°
2026-04-23 17:10 52.33407 17.90214 1343 ft 132 kts 89°
2026-04-23 17:10 52.33544 17.91659 1293 ft 123 kts 60°
2026-04-23 17:10 52.34073 17.92653 1166 ft 115 kts 17°
2026-04-23 17:11 52.34843 17.92730 1060 ft 115 kts 339°
2026-04-23 17:11 52.35558 17.92152 1068 ft 115 kts 328°
2026-04-23 17:11 52.36127 17.91328 1089 ft 94 kts 310°
2026-04-23 17:11 52.36503 17.90486 788 ft 87 kts 305°
2026-04-23 17:12 52.36832 17.89792 451 ft 72 kts 327°
2026-04-23 17:12 52.37149 17.89226 458 ft 81 kts 284°
2026-04-23 17:12 52.37291 17.88328 426 ft 81 kts 287°
2026-04-23 17:12 52.37462 17.87497 386 ft 73 kts 285°
2026-04-23 17:13 52.37595 17.86768 384 ft 62 kts 288°
2026-04-23 17:13 52.37719 17.86192 378 ft 45 kts 286°
2026-04-23 17:13 52.37804 17.85745 380 ft 38 kts 287°
2026-04-23 17:13 52.37882 17.85350 382 ft 35 kts 288°
2026-04-23 17:14 52.37955 17.84970 382 ft 35 kts 288°
2026-04-23 17:14 52.38043 17.84557 386 ft 38 kts 292°
2026-04-23 17:14 52.38121 17.84155 388 ft 35 kts 287°
2026-04-23 17:14 52.38183 17.83909 388 ft 17 kts 328°
2026-04-23 17:15 52.38260 17.83901 385 ft 0 kts 16°
2026-04-23 17:16 52.38267 17.83905 384 ft 5 kts 17°
2026-04-23 17:17 52.38332 17.83938 379 ft 13 kts 11°
2026-04-23 17:17 52.38433 17.83985 379 ft 16 kts 19°
2026-04-23 17:17 52.38482 17.84056 380 ft 15 kts 76°
2026-04-23 17:17 52.38472 17.84267 381 ft 10 kts 59°
2026-04-23 17:18 52.38479 17.84279 381 ft 0 kts 20°